Time,TemperatureF,DewpointF,PressureIn,WindDirection,WindDirectionDegrees,WindSpeedMPH,WindSpeedGustMPH,Humidity,HourlyPrecipIn,Conditions,Clouds,dailyrainin,SoftwareType,DateUTC
2013-03-27 00:03:00,37.0,20.0,-100.00,NW,320,3.0,6.0,49,0.00,,,-99.99,,2013-03-27 04:03:00,
2013-03-27 00:13:00,36.0,20.0,-100.00,West,270,1.0,4.0,50,0.00,,,-99.99,,2013-03-27 04:13:00,
2013-03-27 00:23:00,36.0,20.0,-100.00,WNW,285,1.0,2.0,51,0.00,,,-99.99,,2013-03-27 04:23:00,
2013-03-27 00:33:00,35.0,20.0,-100.00,NNE,30,0.0,4.0,53,0.00,,,-99.99,,2013-03-27 04:33:00,
2013-03-27 00:43:00,35.0,20.0,-100.00,West,260,1.0,3.0,54,0.00,,,-99.99,,2013-03-27 04:43:00,
2013-03-27 00:52:00,35.0,21.0,-100.00,NW,305,1.0,4.0,57,0.00,,,-99.99,,2013-03-27 04:52:00,
2013-03-27 01:03:00,34.0,21.0,-100.00,NNW,340,1.0,2.0,58,0.00,,,-99.99,,2013-03-27 05:03:00,
2013-03-27 01:13:00,34.0,20.0,-100.00,WSW,240,1.0,2.0,57,0.00,,,-99.99,,2013-03-27 05:13:00,
2013-03-27 01:23:00,34.0,20.0,-100.00,SSW,195,1.0,2.0,56,0.00,,,-99.99,,2013-03-27 05:23:00,
2013-03-27 01:33:00,34.0,20.0,-100.00,SW,215,1.0,2.0,57,0.00,,,-99.99,,2013-03-27 05:33:00,
2013-03-27 01:42:00,34.0,20.0,-100.00,SSW,200,1.0,2.0,57,0.00,,,-99.99,,2013-03-27 05:42:00,
2013-03-27 01:52:00,33.0,22.0,-100.00,WNW,290,0.0,2.0,63,0.00,,,-99.99,,2013-03-27 05:52:00,
2013-03-27 02:02:00,31.0,22.0,-100.00,SSE,155,0.0,1.0,67,0.00,,,-99.99,,2013-03-27 06:02:00,
2013-03-27 02:12:00,31.0,21.0,-100.00,South,170,0.0,1.0,67,0.00,,,-99.99,,2013-03-27 06:12:00,
2013-03-27 02:22:00,30.0,22.0,-100.00,East,100,0.0,1.0,69,0.00,,,-99.99,,2013-03-27 06:22:00,
2013-03-27 02:32:00,30.0,21.0,-100.00,South,170,0.0,1.0,68,0.00,,,-99.99,,2013-03-27 06:32:00,
2013-03-27 02:42:00,31.0,21.0,-100.00,South,190,0.0,1.0,66,0.00,,,-99.99,,2013-03-27 06:42:00,
2013-03-27 02:52:00,31.0,21.0,-100.00,South,180,0.0,2.0,67,0.00,,,-99.99,,2013-03-27 06:52:00,
2013-03-27 03:02:00,30.0,21.0,-100.00,West,260,0.0,1.0,66,0.00,,,-99.99,,2013-03-27 07:02:00,
2013-03-27 03:12:00,30.0,21.0,-100.00,North,350,0.0,1.0,69,0.00,,,-99.99,,2013-03-27 07:12:00,
2013-03-27 03:22:00,29.0,21.0,-100.00,East,80,0.0,2.0,70,0.00,,,-99.99,,2013-03-27 07:22:00,
2013-03-27 03:32:00,29.0,21.0,-100.00,NNW,340,0.0,1.0,71,0.00,,,-99.99,,2013-03-27 07:32:00,
2013-03-27 03:43:00,29.0,22.0,-100.00,ENE,70,1.0,1.0,72,0.00,,,-99.99,,2013-03-27 07:43:00,
2013-03-27 03:53:00,29.0,21.0,-100.00,South,190,0.0,1.0,72,0.00,,,-99.99,,2013-03-27 07:53:00,
2013-03-27 04:02:00,28.0,21.0,-100.00,SW,225,0.0,1.0,73,0.00,,,-99.99,,2013-03-27 08:02:00,
2013-03-27 04:13:00,29.0,21.0,-100.00,West,260,0.0,1.0,73,0.00,,,-99.99,,2013-03-27 08:13:00,
2013-03-27 04:22:00,29.0,22.0,-100.00,West,280,0.0,1.0,73,0.00,,,-99.99,,2013-03-27 08:22:00,
2013-03-27 04:32:00,28.0,21.0,-100.00,South,190,0.0,1.0,74,0.00,,,-99.99,,2013-03-27 08:32:00,
2013-03-27 04:43:00,28.0,21.0,-100.00,ENE,70,0.0,1.0,74,0.00,,,-99.99,,2013-03-27 08:43:00,
2013-03-27 04:52:00,28.0,21.0,-100.00,South,190,1.0,2.0,74,0.00,,,-99.99,,2013-03-27 08:52:00,
2013-03-27 05:02:00,29.0,22.0,-100.00,South,175,1.0,1.0,74,0.00,,,-99.99,,2013-03-27 09:02:00,
2013-03-27 05:12:00,28.0,21.0,-100.00,SW,225,0.0,1.0,74,0.00,,,-99.99,,2013-03-27 09:12:00,
2013-03-27 05:22:00,29.0,22.0,-100.00,NNW,345,1.0,2.0,74,0.00,,,-99.99,,2013-03-27 09:22:00,
2013-03-27 05:33:00,29.0,22.0,-100.00,South,180,0.0,1.0,74,0.00,,,-99.99,,2013-03-27 09:33:00,
2013-03-27 05:42:00,28.0,21.0,-100.00,ENE,70,0.0,2.0,74,0.00,,,-99.99,,2013-03-27 09:42:00,
2013-03-27 05:52:00,29.0,22.0,-100.00,NW,315,1.0,4.0,73,0.00,,,-99.99,,2013-03-27 09:52:00,
2013-03-27 06:03:00,29.0,21.0,-100.00,WNW,300,1.0,2.0,74,0.00,,,-99.99,,2013-03-27 10:03:00,
2013-03-27 06:13:00,29.0,21.0,-100.00,ENE,70,0.0,4.0,74,0.00,,,-99.99,,2013-03-27 10:13:00,
2013-03-27 06:23:00,28.0,21.0,-100.00,NW,315,0.0,2.0,74,0.00,,,-99.99,,2013-03-27 10:23:00,
2013-03-27 06:32:00,28.0,21.0,-100.00,ENE,70,0.0,2.0,74,0.00,,,-99.99,,2013-03-27 10:32:00,
2013-03-27 06:42:00,29.0,22.0,-100.00,ESE,115,1.0,1.0,74,0.00,,,-99.99,,2013-03-27 10:42:00,
2013-03-27 06:52:00,28.0,21.0,-100.00,South,180,1.0,3.0,74,0.00,,,-99.99,,2013-03-27 10:52:00,
2013-03-27 07:03:00,30.0,23.0,-100.00,NW,315,2.0,4.0,73,0.00,,,-99.99,,2013-03-27 11:03:00,
2013-03-27 07:12:00,29.0,22.0,-100.00,ESE,110,1.0,3.0,72,0.00,,,-99.99,,2013-03-27 11:12:00,
2013-03-27 07:22:00,29.0,21.0,-100.00,South,170,1.0,2.0,73,0.00,,,-99.99,,2013-03-27 11:22:00,
2013-03-27 07:32:00,31.0,23.0,-100.00,South,190,1.0,5.0,72,0.00,,,-99.99,,2013-03-27 11:32:00,
2013-03-27 07:42:00,32.0,22.0,-100.00,West,260,1.0,4.0,66,0.00,,,-99.99,,2013-03-27 11:42:00,
2013-03-27 07:52:00,34.0,20.0,-100.00,NW,325,3.0,6.0,57,0.00,,,-99.99,,2013-03-27 11:52:00,
2013-03-27 08:02:00,36.0,20.0,-100.00,NNW,345,2.0,7.0,53,0.00,,,-99.99,,2013-03-27 12:02:00,
2013-03-27 08:12:00,36.0,20.0,-100.00,NNW,335,6.0,10.0,51,0.00,,,-99.99,,2013-03-27 12:12:00,
2013-03-27 08:23:00,37.0,20.0,-100.00,NNW,340,6.0,10.0,50,0.00,,,-99.99,,2013-03-27 12:23:00,
2013-03-27 08:32:00,38.0,20.0,-100.00,NNW,330,6.0,11.0,47,0.00,,,-99.99,,2013-03-27 12:32:00,
2013-03-27 08:43:00,39.0,20.0,-100.00,NNW,330,7.0,11.0,46,0.00,,,-99.99,,2013-03-27 12:43:00,
2013-03-27 08:52:00,40.0,21.0,-100.00,NNW,330,4.0,13.0,46,0.00,,,-99.99,,2013-03-27 12:52:00,
2013-03-27 09:02:00,40.0,20.0,-100.00,NNW,330,6.0,12.0,44,0.00,,,-99.99,,2013-03-27 13:02:00,
2013-03-27 09:12:00,41.0,21.0,-100.00,NNW,330,6.0,11.0,43,0.00,,,-99.99,,2013-03-27 13:12:00,
2013-03-27 09:23:00,41.0,21.0,-100.00,NNW,330,6.0,16.0,43,0.00,,,-99.99,,2013-03-27 13:23:00,
2013-03-27 09:32:00,42.0,20.0,-100.00,NNW,340,6.0,11.0,42,0.00,,,-99.99,,2013-03-27 13:32:00,
2013-03-27 09:42:00,42.0,21.0,-100.00,NW,325,4.0,12.0,41,0.00,,,-99.99,,2013-03-27 13:42:00,
2013-03-27 09:52:00,43.0,21.0,-100.00,NNW,330,9.0,14.0,40,0.00,,,-99.99,,2013-03-27 13:52:00,
2013-03-27 10:02:00,44.0,22.0,-100.00,North,0,4.0,12.0,40,0.00,,,-99.99,,2013-03-27 14:02:00,
2013-03-27 10:12:00,45.0,21.0,-100.00,NE,50,4.0,12.0,38,0.00,,,-99.99,,2013-03-27 14:12:00,
2013-03-27 10:22:00,46.0,22.0,-100.00,ENE,60,7.0,12.0,38,0.00,,,-99.99,,2013-03-27 14:22:00,
2013-03-27 10:32:00,46.0,22.0,-100.00,NE,55,7.0,14.0,37,0.00,,,-99.99,,2013-03-27 14:32:00,
2013-03-27 10:42:00,47.0,22.0,-100.00,North,10,5.0,14.0,36,0.00,,,-99.99,,2013-03-27 14:42:00,
2013-03-27 10:52:00,48.0,22.0,-100.00,ENE,70,4.0,12.0,35,0.00,,,-99.99,,2013-03-27 14:52:00,
2013-03-27 11:03:00,48.0,22.0,-100.00,NNW,335,9.0,16.0,36,0.00,,,-99.99,,2013-03-27 15:03:00,
2013-03-27 11:12:00,48.0,22.0,-100.00,North,5,6.0,21.0,35,0.00,,,-99.99,,2013-03-27 15:12:00,
2013-03-27 11:23:00,49.0,22.0,-100.00,North,10,4.0,12.0,34,0.00,,,-99.99,,2013-03-27 15:23:00,
2013-03-27 11:33:00,49.0,23.0,-100.00,NNW,335,11.0,17.0,34,0.00,,,-99.99,,2013-03-27 15:33:00,
2013-03-27 11:43:00,49.0,22.0,-100.00,North,350,6.0,18.0,34,0.00,,,-99.99,,2013-03-27 15:43:00,
2013-03-27 11:52:00,50.0,22.0,-100.00,NNW,340,6.0,13.0,32,0.00,,,-99.99,,2013-03-27 15:52:00,
2013-03-27 12:03:00,50.0,23.0,-100.00,NNW,335,12.0,20.0,34,0.00,,,-99.99,,2013-03-27 16:03:00,
2013-03-27 12:13:00,52.0,23.0,-100.00,ENE,60,1.0,17.0,32,0.00,,,-99.99,,2013-03-27 16:13:00,
2013-03-27 12:23:00,51.0,22.0,-100.00,ENE,65,6.0,13.0,31,0.00,,,-99.99,,2013-03-27 16:23:00,
2013-03-27 12:33:00,51.0,22.0,-100.00,North,10,4.0,14.0,31,0.00,,,-99.99,,2013-03-27 16:33:00,
2013-03-27 12:42:00,52.0,22.0,-100.00,NE,40,6.0,16.0,31,0.00,,,-99.99,,2013-03-27 16:42:00,
2013-03-27 12:52:00,52.0,22.0,-100.00,NNW,340,8.0,13.0,31,0.00,,,-99.99,,2013-03-27 16:52:00,
2013-03-27 13:03:00,53.0,22.0,-100.00,NNE,15,4.0,15.0,30,0.00,,,-99.99,,2013-03-27 17:03:00,
2013-03-27 13:12:00,52.0,22.0,-100.00,NNW,335,7.0,22.0,30,0.00,,,-99.99,,2013-03-27 17:12:00,
2013-03-27 13:22:00,53.0,22.0,-100.00,NNW,330,7.0,17.0,29,0.00,,,-99.99,,2013-03-27 17:22:00,
2013-03-27 13:32:00,52.0,22.0,-100.00,North,355,6.0,13.0,29,0.00,,,-99.99,,2013-03-27 17:32:00,
2013-03-27 13:44:00,53.0,22.0,-100.00,NNE,25,4.0,16.0,29,0.00,,,-99.99,,2013-03-27 17:44:00,
2013-03-27 13:52:00,53.0,22.0,-100.00,NE,50,5.0,14.0,28,0.00,,,-99.99,,2013-03-27 17:52:00,
2013-03-27 14:03:00,51.0,21.0,-100.00,NNW,345,9.0,16.0,30,0.00,,,-99.99,,2013-03-27 18:03:00,
2013-03-27 14:12:00,51.0,21.0,-100.00,North,350,4.0,19.0,30,0.00,,,-99.99,,2013-03-27 18:12:00,
2013-03-27 14:23:00,53.0,22.0,-100.00,NNW,335,7.0,17.0,29,0.00,,,-99.99,,2013-03-27 18:23:00,
2013-03-27 14:32:00,52.0,22.0,-100.00,NNW,340,7.0,15.0,30,0.00,,,-99.99,,2013-03-27 18:32:00,
2013-03-27 14:42:00,53.0,22.0,-100.00,North,10,6.0,22.0,28,0.00,,,-99.99,,2013-03-27 18:42:00,
2013-03-27 14:53:00,53.0,20.0,-100.00,NE,55,6.0,23.0,28,0.00,,,-99.99,,2013-03-27 18:53:00,
2013-03-27 15:03:00,52.0,21.0,-100.00,NNW,340,9.0,13.0,30,0.00,,,-99.99,,2013-03-27 19:03:00,
2013-03-27 15:12:00,53.0,21.0,-100.00,ENE,65,6.0,17.0,28,0.00,,,-99.99,,2013-03-27 19:12:00,
2013-03-27 15:22:00,54.0,21.0,-100.00,ENE,70,7.0,13.0,28,0.00,,,-99.99,,2013-03-27 19:22:00,
2013-03-27 15:32:00,52.0,21.0,-100.00,NE,55,4.0,16.0,30,0.00,,,-99.99,,2013-03-27 19:32:00,
2013-03-27 15:42:00,51.0,21.0,-100.00,NNE,30,6.0,16.0,30,0.00,,,-99.99,,2013-03-27 19:42:00,
2013-03-27 15:52:00,52.0,21.0,-100.00,NNE,30,4.0,12.0,29,0.00,,,-99.99,,2013-03-27 19:52:00,
2013-03-27 16:03:00,51.0,22.0,-100.00,ENE,60,6.0,13.0,31,0.00,,,-99.99,,2013-03-27 20:03:00,
2013-03-27 16:12:00,51.0,21.0,-100.00,NE,55,6.0,16.0,29,0.00,,,-99.99,,2013-03-27 20:12:00,
2013-03-27 16:22:00,52.0,22.0,-100.00,ENE,60,6.0,22.0,30,0.00,,,-99.99,,2013-03-27 20:22:00,
2013-03-27 16:32:00,52.0,23.0,-100.00,North,5,3.0,16.0,31,0.00,,,-99.99,,2013-03-27 20:32:00,
2013-03-27 16:43:00,51.0,22.0,-100.00,NE,50,8.0,19.0,31,0.00,,,-99.99,,2013-03-27 20:43:00,
2013-03-27 16:52:00,51.0,22.0,-100.00,NE,50,7.0,17.0,31,0.00,,,-99.99,,2013-03-27 20:52:00,
2013-03-27 17:02:00,49.0,22.0,-100.00,NE,45,7.0,18.0,33,0.00,,,-99.99,,2013-03-27 21:02:00,
2013-03-27 17:12:00,51.0,22.0,-100.00,NNW,345,3.0,12.0,31,0.00,,,-99.99,,2013-03-27 21:12:00,
2013-03-27 17:23:00,50.0,21.0,-100.00,NNE,20,4.0,10.0,31,0.00,,,-99.99,,2013-03-27 21:23:00,
2013-03-27 17:32:00,50.0,22.0,-100.00,NNE,20,6.0,17.0,32,0.00,,,-99.99,,2013-03-27 21:32:00,
2013-03-27 17:43:00,49.0,21.0,-100.00,NE,55,4.0,12.0,32,0.00,,,-99.99,,2013-03-27 21:43:00,
2013-03-27 17:52:00,49.0,21.0,-100.00,North,10,3.0,11.0,32,0.00,,,-99.99,,2013-03-27 21:52:00,
2013-03-27 18:03:00,49.0,21.0,-100.00,North,0,5.0,15.0,33,0.00,,,-99.99,,2013-03-27 22:03:00,
2013-03-27 18:12:00,49.0,21.0,-100.00,North,350,5.0,10.0,32,0.00,,,-99.99,,2013-03-27 22:12:00,
2013-03-27 18:23:00,49.0,22.0,-100.00,NNE,25,7.0,19.0,33,0.00,,,-99.99,,2013-03-27 22:23:00,
2013-03-27 18:33:00,49.0,22.0,-100.00,NNE,25,4.0,10.0,34,0.00,,,-99.99,,2013-03-27 22:33:00,
2013-03-27 18:42:00,48.0,23.0,-100.00,ENE,70,4.0,11.0,36,0.00,,,-99.99,,2013-03-27 22:42:00,
2013-03-27 18:52:00,48.0,22.0,-100.00,NE,50,5.0,12.0,36,0.00,,,-99.99,,2013-03-27 22:52:00,
2013-03-27 19:03:00,48.0,23.0,-100.00,ENE,70,5.0,12.0,36,0.00,,,-99.99,,2013-03-27 23:03:00,
2013-03-27 19:12:00,48.0,23.0,-100.00,NE,35,6.0,13.0,37,0.00,,,-99.99,,2013-03-27 23:12:00,
2013-03-27 19:22:00,47.0,25.0,-100.00,ENE,60,7.0,16.0,41,0.00,,,-99.99,,2013-03-27 23:22:00,
2013-03-27 19:32:00,46.0,25.0,-100.00,ENE,65,7.0,12.0,42,0.00,,,-99.99,,2013-03-27 23:32:00,
2013-03-27 19:42:00,46.0,25.0,-100.00,NNE,25,6.0,16.0,43,0.00,,,-99.99,,2013-03-27 23:42:00,
2013-03-27 19:52:00,46.0,25.0,-100.00,ENE,70,4.0,11.0,44,0.00,,,-99.99,,2013-03-27 23:52:00,
2013-03-27 20:02:00,46.0,26.0,-100.00,ENE,65,4.0,9.0,45,0.00,,,-99.99,,2013-03-28 00:02:00,
2013-03-27 20:12:00,45.0,25.0,-100.00,ENE,60,4.0,12.0,45,0.00,,,-99.99,,2013-03-28 00:12:00,
2013-03-27 20:22:00,45.0,26.0,-100.00,ENE,65,4.0,11.0,45,0.00,,,-99.99,,2013-03-28 00:22:00,
2013-03-27 20:33:00,45.0,26.0,-100.00,ENE,75,4.0,10.0,46,0.00,,,-99.99,,2013-03-28 00:33:00,
2013-03-27 20:43:00,44.0,26.0,-100.00,NE,55,4.0,14.0,47,0.00,,,-99.99,,2013-03-28 00:43:00,
2013-03-27 20:52:00,44.0,27.0,-100.00,ENE,65,3.0,11.0,49,0.00,,,-99.99,,2013-03-28 00:52:00,
2013-03-27 21:02:00,44.0,27.0,-100.00,ENE,65,2.0,8.0,50,0.00,,,-99.99,,2013-03-28 01:02:00,
2013-03-27 21:12:00,44.0,27.0,-100.00,NE,40,3.0,7.0,50,0.00,,,-99.99,,2013-03-28 01:12:00,
2013-03-27 21:22:00,44.0,27.0,-100.00,ENE,65,4.0,8.0,51,0.00,,,-99.99,,2013-03-28 01:22:00,
2013-03-27 21:32:00,44.0,27.0,-100.00,NE,35,4.0,13.0,52,0.00,,,-99.99,,2013-03-28 01:32:00,
2013-03-27 21:42:00,43.0,27.0,-100.00,NE,55,4.0,11.0,52,0.00,,,-99.99,,2013-03-28 01:42:00,
2013-03-27 21:50:00,42.0,29.0,-100.00,NNE,30,3.0,11.0,60,0.00,,,-99.99,,2013-03-28 01:50:00,
2013-03-27 21:52:00,43.0,27.0,-100.00,NNE,30,3.0,9.0,53,0.00,,,-99.99,,2013-03-28 01:52:00,
2013-03-27 22:03:00,43.0,27.0,-100.00,NE,50,3.0,6.0,53,0.00,,,-99.99,,2013-03-28 02:03:00,
2013-03-27 22:12:00,43.0,28.0,-100.00,North,355,2.0,7.0,55,0.00,,,-99.99,,2013-03-28 02:12:00,
2013-03-27 22:22:00,42.0,28.0,-100.00,East,85,3.0,9.0,57,0.00,,,-99.99,,2013-03-28 02:22:00,
2013-03-27 22:33:00,42.0,29.0,-100.00,NNE,30,3.0,11.0,60,0.00,,,-99.99,,2013-03-28 02:33:00,
2013-03-27 22:42:00,42.0,29.0,-100.00,NNE,30,3.0,11.0,60,0.00,,,-99.99,,2013-03-28 02:42:00,
2013-03-27 23:02:00,41.0,31.0,-100.00,NNE,20,3.0,9.0,65,0.00,,,-99.99,,2013-03-28 03:02:00,
2013-03-27 23:12:00,41.0,31.0,-100.00,NE,45,2.0,12.0,67,0.00,,,-99.99,,2013-03-28 03:12:00,
2013-03-27 23:22:00,40.0,31.0,-100.00,NE,55,2.0,9.0,69,0.01,,,-99.99,,2013-03-28 03:22:00,
2013-03-27 23:33:00,40.0,32.0,-100.00,North,355,4.0,10.0,72,0.01,,,-99.99,,2013-03-28 03:33:00,
2013-03-27 23:43:00,40.0,32.0,-100.00,NE,45,2.0,10.0,73,0.00,,,-99.99,,2013-03-28 03:43:00,
2013-03-27 23:52:00,40.0,32.0,-100.00,East,90,3.0,7.0,73,0.00,,,-99.99,,2013-03-28 03:52:00,